EB7GYR Weather Reports


time (UTC)temp
C
wind
direction
speed
KPH
gust
KPH
rain 1hr
cm
rain 24hr
cm
rain mn
cm
humidity
%
barometer
mb
20260508142517 22 180 6.4 16.1 0.00 0.00 0.00 54 1008.5
20260508141518 22 225 8.0 16.1 0.00 0.00 0.00 54 1008.6
20260508140517 22 270 6.4 12.9 0.00 0.00 0.00 53 1008.7
20260508135517 22 158 9.7 16.1 0.00 0.00 0.00 52 1009.0
20260508134518 22 180 9.7 17.7 0.00 0.00 0.00 50 1009.1
20260508133557 22 225 9.7 20.9 0.00 0.00 0.00 49 1009.2
20260508132516 22 225 9.7 20.9 0.00 0.00 0.00 48 1009.3
20260508131516 22 203 8.0 16.1 0.00 0.00 0.00 49 1009.3
20260508130517 22 180 6.4 14.5 0.00 0.00 0.00 49 1009.3
20260508125517 22 180 9.7 20.9 0.00 0.00 0.00 50 1009.4
20260508124517 22 180 9.7 17.7 0.00 0.00 0.00 51 1009.4
20260508123517 22 225 3.2 11.3 0.00 0.00 0.00 49 1009.4
20260508122517 22 158 9.7 19.3 0.00 0.00 0.00 49 1009.6
20260508121517 22 113 6.4 11.3 0.00 0.00 0.00 50 1009.5
20260508120518 21 225 11.3 20.9 0.00 0.00 0.00 50 1009.6
20260508115536 22 225 6.4 16.1 0.00 0.00 0.00 49 1009.8
20260508114516 22 180 6.4 14.5 0.00 0.00 0.00 49 1009.9
20260508113516 21 158 3.2 12.9 0.00 0.00 0.00 49 1010.0
20260508112517 21 203 3.2 9.7 0.00 0.00 0.00 50 1010.1
20260508111517 21 225 8.0 16.1 0.00 0.00 0.00 51 1010.1
20260508110517 21 203 4.8 11.3 0.00 0.00 0.00 52 1010.2
20260508105516 21 180 6.4 11.3 0.00 0.00 0.00 52 1010.2
20260508104516 20 158 4.8 9.7 0.00 0.00 0.00 52 1010.3
20260508103517 20 203 4.8 14.5 0.00 0.00 0.00 53 1010.3
20260508102517 20 180 4.8 11.3 0.00 0.00 0.00 55 1010.4
20260508101516 20 225 3.2 12.9 0.00 0.00 0.00 56 1010.4
20260508100516 20 135 8.0 16.1 0.00 0.00 0.00 56 1010.4
20260508095517 20 113 4.8 11.3 0.00 0.00 0.00 57 1010.4
20260508094516 19 135 3.2 12.9 0.00 0.00 0.00 59 1010.5
20260508093516 19 203 1.6 8.0 0.00 0.00 0.00 60 1010.6
20260508092516 18 180 3.2 16.1 0.00 0.00 0.00 65 1010.8
20260508091516 18 180 1.6 3.2 0.00 0.00 0.00 66 1010.9
20260508090516 18 203 4.8 9.7 0.00 0.00 0.00 66 1010.9
20260508085516 18 203 6.4 12.9 0.00 0.00 0.00 67 1011.0
20260508084516 18 203 4.8 14.5 0.00 0.00 0.00 66 1011.0
20260508083516 18 203 4.8 12.9 0.00 0.00 0.00 67 1010.8
20260508082517 18 180 8.0 12.9 0.00 0.00 0.00 66 1010.7
20260508081516 18 158 3.2 11.3 0.00 0.00 0.00 69 1010.8
20260508080517 17 135 4.8 11.3 0.00 0.00 0.00 71 1010.8
20260508075537 17 180 4.8 9.7 0.00 0.00 0.00 74 1010.8
20260508074516 17 135 4.8 12.9 0.00 0.00 0.00 75 1010.6
20260508073516 16 158 8.0 14.5 0.00 0.00 0.00 77 1010.6
20260508072517 16 158 4.8 9.7 0.00 0.00 0.00 79 1010.5
20260508071538 15 135 8.0 12.9 0.00 0.00 0.00 79 1010.3
20260508070516 15 135 4.8 8.0 0.00 0.00 0.00 81 1010.5
20260508065516 15 158 4.8 8.0 0.00 0.00 0.00 82 1010.4
20260508064516 14 135 1.6 6.4 0.00 0.00 0.00 83 1010.4
20260508063537 14 180 4.8 9.7 0.00 0.00 0.00 83 1010.3
20260508062516 13 158 6.4 12.9 0.00 0.00 0.00 83 1010.3
20260508061516 13 135 6.4 11.3 0.00 0.00 0.00 83 1010.4
20260508060517 13 135 4.8 8.0 0.00 0.00 0.00 82 1010.3
20260508055516 13 135 6.4 11.3 0.00 0.00 0.00 82 1010.2
20260508054516 13 0.0 0.0 0.00 0.00 0.00 82 1010.1
20260508053516 13 0.0 0.0 0.00 0.00 0.00 81 1010.0
20260508052516 14 0.0 0.0 0.00 0.00 0.00 81 1009.7
20260508051517 14 180 1.6 4.8 0.00 0.00 0.00 81 1009.6
20260508050517 14 225 1.6 6.4 0.00 0.00 0.00 81 1009.5
20260508045518 14 225 1.6 6.4 0.00 0.00 0.00 82 1009.5
20260508044518 14 248 1.6 6.4 0.00 0.00 0.00 81 1009.4
20260508043517 14 0.0 0.0 0.00 0.00 0.00 81 1009.2
20260508042519 14 158 1.6 6.4 0.00 0.00 0.00 81 1009.2
20260508041517 14 0.0 0.0 0.00 0.00 0.00 80 1009.2
20260508040518 14 158 1.6 4.8 0.00 0.00 0.00 80 1009.2
20260508035519 14 158 4.8 11.3 0.00 0.00 0.00 80 1009.3
20260508034518 14 158 3.2 6.4 0.00 0.00 0.00 80 1009.2
20260508033519 14 135 1.6 6.4 0.00 0.00 0.00 80 1009.2
20260508032517 14 135 1.6 8.0 0.00 0.00 0.00 80 1009.2
20260508031517 14 158 1.6 8.0 0.00 0.00 0.00 80 1009.5
20260508030517 14 135 4.8 11.3 0.00 0.00 0.00 80 1009.5
20260508025517 14 135 6.4 12.9 0.00 0.00 0.00 80 1009.6
20260508024517 14 135 3.2 11.3 0.00 0.00 0.00 80 1009.6
20260508023517 14 158 3.2 8.0 0.00 0.00 0.00 80 1009.7
20260508022517 14 135 4.8 9.7 0.00 0.00 0.00 79 1009.5
20260508021559 14 135 1.6 6.4 0.00 0.00 0.00 79 1009.6
20260508020517 15 135 1.6 8.0 0.00 0.00 0.00 79 1009.6
20260508015517 15 158 1.6 8.0 0.00 0.00 0.00 79 1009.8
20260508014517 15 158 1.6 8.0 0.00 0.00 0.00 79 1009.8
20260508013517 15 158 4.8 9.7 0.00 0.00 0.00 79 1010.0
20260508012517 15 158 6.4 11.3 0.00 0.00 0.00 79 1009.9
20260508011517 15 135 3.2 6.4 0.00 0.00 0.00 78 1009.8
20260508010517 15 180 3.2 8.0 0.00 0.00 0.00 78 1010.1
20260508005517 15 135 3.2 8.0 0.00 0.00 0.00 78 1010.0
20260508004517 15 158 3.2 6.4 0.00 0.00 0.00 78 1010.1
20260508003517 15 158 1.6 8.0 0.00 0.00 0.00 78 1010.2
20260508002539 15 0.0 4.8 0.00 0.00 0.00 78 1010.3
20260508001517 15 158 4.8 9.7 0.00 0.00 0.00 77 1010.3
20260508000517 15 158 4.8 8.0 0.00 0.00 0.00 77 1010.3
20260507235517 15 158 4.8 8.0 0.00 0.00 0.00 76 1010.3
20260507234517 15 135 3.2 8.0 0.00 0.00 0.00 76 1010.2
20260507233517 15 135 4.8 8.0 0.00 0.00 0.00 76 1010.2
20260507232517 15 113 4.8 9.7 0.00 0.00 0.00 74 1010.2
20260507231518 15 158 3.2 8.0 0.00 0.00 0.00 74 1010.4
20260507230517 15 158 3.2 6.4 0.00 0.00 0.00 74 1010.5
20260507225517 15 135 4.8 9.7 0.00 0.00 0.00 74 1010.6
20260507224517 15 113 4.8 6.4 0.00 0.00 0.00 73 1010.6
20260507223517 16 113 4.8 11.3 0.00 0.00 0.00 72 1010.8
20260507222517 16 0.0 4.8 0.00 0.00 0.00 70 1010.9
20260507221517 16 203 3.2 8.0 0.00 0.00 0.00 69 1010.9
20260507220517 16 180 3.2 9.7 0.00 0.00 0.00 69 1010.9
20260507215518 16 203 4.8 11.3 0.00 0.00 0.00 69 1010.9
20260507214517 16 203 6.4 11.3 0.00 0.00 0.00 69 1010.9
20260507213538 17 203 3.2 6.4 0.00 0.00 0.00 69 1010.8
20260507212518 17 225 3.2 9.7 0.00 0.00 0.00 69 1010.9
20260507211558 17 203 4.8 9.7 0.00 0.00 0.00 68 1010.8
20260507210517 17 225 6.4 12.9 0.00 0.00 0.00 68 1010.8
20260507205517 17 225 3.2 8.0 0.00 0.00 0.00 68 1010.8
20260507204538 17 248 4.8 11.3 0.00 0.00 0.00 68 1010.8
20260507203518 17 248 4.8 12.9 0.00 0.00 0.00 68 1010.7
20260507202517 17 225 3.2 11.3 0.00 0.00 0.00 68 1010.5
20260507201558 17 248 6.4 14.5 0.00 0.00 0.00 67 1010.3
20260507200518 17 225 8.0 14.5 0.00 0.00 0.00 68 1010.2
20260507195537 17 225 8.0 14.5 0.00 0.00 0.00 68 1010.2
20260507194517 17 225 4.8 12.9 0.00 0.00 0.00 67 1010.1
20260507193539 17 225 8.0 17.7 0.00 0.00 0.00 67 1010.0
20260507192537 17 248 9.7 17.7 0.00 0.00 0.00 67 1009.9
20260507191517 17 225 9.7 22.5 0.00 0.00 0.00 67 1009.9
20260507190517 17 225 11.3 25.7 0.00 0.00 0.00 67 1009.7
20260507185518 17 248 9.7 22.5 0.00 0.00 0.00 66 1009.5
20260507184517 17 225 12.9 24.1 0.00 0.00 0.00 65 1009.6
20260507183517 18 248 8.0 17.7 0.00 0.00 0.00 65 1009.5
20260507182518 18 225 11.3 22.5 0.00 0.00 0.00 64 1009.4
20260507181518 18 225 12.9 22.5 0.00 0.00 0.00 63 1009.3
20260507180517 18 225 12.9 25.7 0.00 0.00 0.00 62 1009.3
20260507175538 19 225 11.3 24.1 0.00 0.00 0.00 60 1009.3
20260507174518 19 225 9.7 22.5 0.00 0.00 0.00 59 1009.3
20260507173517 20 225 9.7 25.7 0.00 0.00 0.00 56 1009.3
20260507172518 20 225 11.3 19.3 0.00 0.00 0.00 56 1009.2
20260507171517 20 225 11.3 20.9 0.00 0.00 0.00 55 1009.1
20260507170557 20 225 9.7 24.1 0.00 0.00 0.00 55 1008.9
20260507165517 20 225 12.9 20.9 0.00 0.00 0.00 55 1008.9
20260507164517 20 225 12.9 20.9 0.00 0.00 0.00 56 1008.9
20260507163518 20 225 11.3 20.9 0.00 0.00 0.00 55 1008.8
20260507162518 20 225 12.9 24.1 0.00 0.00 0.00 55 1008.8
20260507161517 21 225 8.0 16.1 0.00 0.00 0.00 55 1008.8
20260507160517 21 225 14.5 24.1 0.00 0.00 0.00 55 1008.7
20260507155517 21 203 11.3 27.4 0.00 0.00 0.00 54 1008.6
20260507154558 21 203 14.5 25.7 0.00 0.00 0.00 54 1008.7
20260507153517 21 225 14.5 32.2 0.00 0.00 0.00 54 1008.7
20260507152517 21 203 12.9 29.0 0.00 0.00 0.00 54 1008.7
20260507151516 21 203 12.9 25.7 0.00 0.00 0.00 52 1008.8
20260507150517 21 203 12.9 29.0 0.00 0.00 0.00 52 1008.8
20260507145517 21 180 11.3 19.3 0.00 0.00 0.00 55 1008.9
20260507144516 20 203 12.9 24.1 0.00 0.00 0.00 55 1009.0
20260507143517 21 225 14.5 27.4 0.00 0.00 0.00 54 1009.1